STARLINK-3911, 52565

Orbit data source: Space-Track

STARLINK-3911, 52565 is a payload satellite owned by SpaceX/Seattle (US) in LEO that was launched on Fri, 13 May 2022 UTC via an FALCON 9 launch vehicle from the Air Force Western Test Range (AFWTR). Payload-class satellites include a variety of spacecraft equipped with specific instruments for various scientific and technological missions. These include communications satellites like Starlink; space stations such as the ISS; scientific satellites like the Hubble; Earth observation satellites from companies like Planet Labs, Umbra, and HawkEye 360; GPS; miniature CubeSats for education and research; and military/defense satellites.

Loading next visibility...
Identifier
52565, 2022-051AJ
Orbit
LEO
Country
Flag of USUS
Related business
Manufacturer
SpaceX/Seattle
Mission
Operational Commercial Communications
Bus & Motor
STARLINK, Unknown motor
Mass
297 kg wet, ~275 kg dry
Launch date (UTC)
2022-05-13 (4 years ago)
Launch vehicle
FALCON 9
Launch site
Air Force Western Test Range (AFWTR)
Object type
Payload
Rocket body
Debris
Shape & HBR
Box + 1 Pan, 10.1 m
Radar Cross Section
13.562 m², Large (>1 m²)

Expand to show TLE details & history
Last TLE update: 3 days ago

TLE from 3 days ago
0 STARLINK-3911
1 52565U 22051AJ  26170.85321026  .00001492  00000-0  11187-3 0  9993
2 52565  53.1608  20.3809 0001931  87.0004 273.1208 15.08832298227003
Epoch: 2026-06-19T20:28Z
TLE epoch observation values (Epoch: 2026-06-19T20:28:37.366Z)
Latitude
-0.00005°
Longitude
165.14894°
Altitude
540.586 km
Speed
7.593 km/s
True Right ascension
01h 21m 31s
True Declination
0° 00' 00"
Sunlit
Object was in daylight at epoch
Visualization orbit readout
Latitude
Unknown
Longitude
Unknown
Altitude
Unknown
Speed
Unknown
Apparent Right ascension
Unknown
Apparent Declination
Unknown
Sunlit
N/A
Visualization observer readout
Local Sidereal Time
21:31:10
Azimuth
Unknown
Elevation
Unknown
Doppler factor
Unknown
Orbital elements
Apogee altitude
541.357 km
Perigee altitude
538.685 km
Semi-major axis
6,918.158 km
Eccentricity
0.00019
Inclination
53.1608°
RAAN
20.3809°
Arg. of periapsis
87.0004°
True anomaly
273.0987°
Mean anomaly
273.1208°
Eccentric anomaly
273.10975°
Mean motion
3.77188 °/min
Orbital period
95.44 mins
BSTAR
0.00011187
Loading maneuver chart data...
Computing Atmospheric mass density...
Loading historical data...
Loading historical data...
Loading historical data...
Loading historical data...
Loading historical data...
Loading historical data...
Loading historical data...

Documentation

Showing up to 5 results
|